This demonstration page uses our WeatherBlox Daily Observations layout. Learn more.

Left ArrowRight Arrow

38.83388, -104.82136

Hourly Observations for May 17, 2018

Temp ( °F °C ) Dew Point ( °F °C ) Humidity (%) Winds ( mph kmh ) Pressure ( in mb ) Visibility ( mi km ) Precip ( " mm )
12:58 am 00:58 Clear 59 15 43 6.1 56 56 Calm 29.54 1000 10 16 0.00 0.00
1:58 am 01:58 Clear 56 13.5 43 6.3 62 62 WNW 3 6 29.50 999 10 16 0.00 0.00
2:58 am 02:58 Clear 55 12.7 43 6.3 65 65 NW 3 6 29.49 999 10 16 0.00 0.00
3:58 am 03:58 Clear 54 12.4 44 6.9 69 69 NW 7 11 29.49 999 10 16 0.00 0.00
4:58 am 04:58 Clear 54 12 46 7.7 75 75 NNW 7 11 29.48 998 10 16 0.00 0.00
5:58 am 05:58 Sunny 55 12.5 41 5.1 61 61 SSE 9 15 29.47 998 10 16 0.00 0.00
6:58 am 06:58 Sunny 57 13.7 43 6.3 61 61 Calm 29.47 998 10 16 0.00 0.00
7:58 am 07:58 Sunny 58 14.2 47 8.1 67 67 Calm 29.48 998 10 16 0.00 0.00
8:58 am 08:58 Sunny 62 16.4 49 9.5 64 64 SE 6 9 29.45 997 10 16 0.00 0.00
9:58 am 09:58 Sunny 65 18.2 48 9 55 55 ESE 5 7 29.45 997 10 16 0.00 0.00
10:58 am 10:58 Sunny 70 21.2 47 8.3 44 44 ESE 8 13 29.42 996 10 16 0.00 0.00
11:56 am 11:56 Sunny 76 24.5 17 -8.4 11 11 SE 21 33 29.36 994 10 16 0.00 0.00
12:50 pm 12:50 Sunny 77 25 14 -10 9 9 SE 20 31 29.35 994 10 16 0.00 0.00
12:58 pm 12:58 Sunny 78 25.4 11 -11.4 8 8 SE 22 35 29.35 994 10 16 0.00 0.00
1:07 pm 13:07 Sunny 77 25 12 -11 8 8 SSE 14 22 29.35 994 10 16 0.00 0.00
1:58 pm 13:58 Sunny 77 25 14 -10.2 9 9 S 17 28 29.36 994 10 16 0.00 0.00
1:59 pm 13:59 Sunny 77 25 12 -11 8 8 SE 21 33 29.35 994 10 16 0.00 0.00
2:43 pm 14:43 Sunny 79 26 7 -14 6 6 S 16 26 29.34 993 10 16 0.00 0.00
2:58 pm 14:58 Sunny 78 25.7 7 -13.9 6 6 SSE 23 37 29.33 993 10 16 0.00 0.00
3:01 pm 15:01 Sunny 77 25 3 -16 5 5 SSW 15 24 29.34 993 10 16 0.00 0.00
3:43 pm 15:43 Sunny 77 25 3 -16 5 5 S 20 31 29.31 993 10 16 0.00 0.00
3:59 pm 15:59 Sunny 77 25.2 5 -15 6 6 SSE 20 31 29.31 993 10 16 0.00 0.00
4:27 pm 16:27 Sunny 77 25 5 -15 6 6 S 18 30 29.31 992 10 16 0.00 0.00
4:49 pm 16:49 Sunny 77 25 5 -15 6 6 S 18 30 29.32 993 10 16 0.00 0.00
4:58 pm 16:58 Sunny 77 25 6 -14.4 6 6 S 13 20 29.31 993 10 16 0.00 0.00
5:29 pm 17:29 Sunny 77 25 3 -16 5 5 S 22 35 29.29 992 10 16 0.00 0.00
5:58 pm 17:58 Sunny 76 24.4 4 -15.5 6 6 SSE 14 22 29.31 993 10 16 0.00 0.00
6:58 pm 18:58 Sunny 74 23.6 5 -15.1 6 6 SSE 9 15 29.29 992 10 16 0.00 0.00
7:58 pm 19:58 Sunny 73 23 4 -15.8 6 6 S 8 13 29.29 992 10 16 0.00 0.00
8:58 pm 20:58 Clear 73 22.6 4 -15.5 7 7 S 7 11 29.30 992 10 16 0.00 0.00
9:58 pm 21:58 Mostly Clear 70 21 5 -15.1 8 8 E 6 9 29.31 993 10 16 0.00 0.00
10:58 pm 22:58 Clear 71 21.4 8 -13.4 9 9 NW 12 19 29.31 993 10 16 0.00 0.00
11:58 pm 23:58 Partly Cloudy 68 19.9 10 -12.4 10 10 NW 7 11 29.41 996 10 16 0.00 0.00

Powered by AerisWeather